Location: Red Rock Canyon
(36.1333°N, 115.4333°W)
Time: 16:16:01
(UTC-08:00)

ISS - Visible Passes

Search period start: 22 February 2017 00:00
Search period end: 04 March 2017 00:00
Orbit: 399 x 408 km, 51.6° (Epoch: 23 February)

Date Brightness Start Highest point End Pass type
(mag) Time Alt. Az. Time Alt. Az. Time Alt. Az.
26 Feb -0.1 05:37:18 10° SSE 05:38:49 13° SE 05:40:22 10° E visible
28 Feb -1.5 05:26:55 10° SSW 05:29:54 33° SE 05:32:54 10° ENE visible
01 Mar -0.5 04:35:24 10° SSE 04:37:30 16° SE 04:39:36 10° E visible
02 Mar -3.4 05:17:59 11° SW 05:21:04 86° NW 05:24:23 10° NE visible
03 Mar -2.4 04:28:09 40° SSE 04:28:31 42° SE 04:31:40 10° ENE visible
